Location: Chaourse
(49.7047°N, 3.9991°E)
Time: 23:08:23
(UTC+00:00)

Daily predictions for brighter satellites

Satellite Brightness Start Highest point End
(mag) Time Altitude Azimuth Time Altitude Azimuth Time Altitude Azimuth
BREEZE-M DEB (TANK) 4.1 19:59:31 10° W 20:03:50 86° S 20:21:59 10° ESE
Okean 1 Rocket 4.4 20:17:32 10° NNW 20:21:46 42° W 20:25:58 10° SSW
Cosmos 1833 Rocket 3.0 20:17:14 10° NNW 20:22:50 58° NE 20:28:23 10° SE
Cosmos 1455 Rocket 3.1 20:19:31 10° N 20:23:56 89° W 20:28:17 10° S
Cosmos 1125 Rocket 3.7 20:18:56 10° S 20:24:03 52° ESE 20:29:11 10° NNE
NOSS 2-3 (E) 3.1 20:20:29 10° SW 20:24:07 76° SE 20:28:14 10° NE
Orbus 7S? 3.6 20:22:48 10° WNW 20:25:29 35° SW 20:28:03 10° SSE
Nadezhda 3 Rocket 4.0 20:19:20 10° N 20:25:32 86° E 20:31:42 10° S
Lacrosse 5 2.6 20:20:31 10° WSW 20:25:32 60° NNW 20:30:34 10° NE
IRS-1C Rocket 4.1 20:21:19 10° SSE 20:26:34 78° ENE 20:31:52 10° NNW
GP-B 3.6 20:23:53 10° N 20:28:15 63° W 20:32:36 10° SSW
IRS-1A Rocket 4.4 20:23:35 10° SSE 20:29:17 83° ENE 20:35:08 10° NNW
Cosmos 1975 Rocket 3.2 20:25:02 10° S 20:29:26 63° E 20:33:51 10° NNE
MetOp-B 4.4 20:30:51 10° S 20:36:12 73° WSW 20:41:35 10° NNW
NOSS 2-2 (D) 2.9 20:34:15 10° SW 20:37:28 76° NW 20:40:38 10° NE
Cosmos 1844 Rocket 4.1 20:36:05 10° SW 20:41:23 43° NW 20:46:44 10° NNE
Cosmos 2082 Rocket 3.5 20:37:30 10° NNW 20:42:26 30° NE 20:47:20 10° ESE
NOSS 2-3 (C) 3.5 20:39:53 10° SW 20:43:30 75° NW 20:47:42 10° NE
Landsat 4 4.4 20:44:22 11° SE 20:47:16 34° ENE 20:50:26 10° N
Cosmos 921 Rocket 4.5 20:43:33 10° NW 20:47:18 32° WSW 20:51:02 10° SSW
Cosmos 2084 4.0 20:43:15 10° WSW 20:47:18 58° NW 20:51:12 10° NE
BREEZE-M R/B 3.8 20:43:55 10° SSW 20:47:28 34° SE 20:54:28 10° ENE
SPOT 3 Rocket 3.7 20:44:47 10° SSE 20:49:56 67° ENE 20:55:09 10° N
Cosmos 2278 Rocket 3.1 20:45:46 10° SSE 20:50:28 28° ESE 20:55:11 10° NE
Cosmos 2084 Rocket 4.2 20:48:51 10° NW 20:52:39 39° NE 20:56:21 10° ESE
Meteor 2-1 Rocket 4.4 20:47:06 10° NNW 20:52:43 76° W 20:58:13 10° S
Cosmos 2228 3.2 20:48:49 10° N 20:52:57 53° ENE 20:56:37 12° SSE
Cosmos 1869 3.2 20:51:43 10° NNW 20:55:34 82° W 20:59:24 10° S
USA 276 3.9 20:55:20 10° W 20:57:26 18° SW 20:59:13 12° S
SPOT 5 4.0 20:54:16 10° S 20:59:02 45° W 21:04:03 10° NNW
MOS 1 Rocket 3.3 20:55:44 10° S 21:00:19 75° WSW 21:04:42 10° NNW
ERS-1 Rocket 3.3 20:55:41 10° S 21:00:39 66° WSW 21:05:40 10° NNW
Cosmos 1536 Rocket 4.2 20:57:14 12° SSE 21:00:50 37° E 21:04:49 10° NNE
Resurs 01 Rocket 4.4 20:58:49 10° WSW 21:00:51 13° W 21:02:53 10° WNW
Okean O Rocket 4.1 20:59:15 10° SW 21:02:06 17° W 21:04:59 10° NW
BREEZE-M DEB (TANK) 3.9 21:00:04 10° W 21:03:01 48° SSW 21:10:19 11° SE
USA 290 4.0 21:02:43 15° ESE 21:03:32 16° ESE 21:05:36 10° ENE
Cosmos 2218 Rocket 4.2 20:58:19 10° SSE 21:04:12 51° E 21:10:10 10° NNE
ISS -3.4 21:02:01 10° WNW 21:05:19 64° N 21:08:37 10° E
Spot 2 Rocket 3.7 21:05:12 10° S 21:10:17 73° WSW 21:15:24 10° NNW
USA 307 3.7 21:07:13 10° WNW 21:10:59 43° N 21:14:35 10° E
Cosmos 614 Rocket 3.9 21:06:05 10° NNW 21:11:11 84° ENE 21:15:20 15° SSE
Cosmos 1943 Rocket 3.2 21:09:13 14° SSE 21:12:54 26° ESE 21:17:31 10° NE
Cosmos 2341 Rocket 4.0 21:13:27 10° S 21:19:45 82° E 21:26:09 10° N
Terra 2.5 21:15:50 10° S 21:20:25 49° W 21:25:01 10° NNW
COSMOS 2406 4.0 21:15:54 10° NNW 21:21:18 42° NE 21:25:54 14° ESE
Cosmos 2098 4.2 21:22:31 13° S 21:25:29 84° E 21:28:30 10° N
Cosmos 44 3.5 21:21:55 10° SW 21:27:11 80° NW 21:32:14 10° NE
MetOp-A 3.7 21:25:34 18° SSE 21:28:47 66° ENE 21:32:58 10° N
ARIANE 5 R/B 3.8 21:27:15 16° ESE 21:30:08 31° ENE 21:34:04 10° N
ATLAS 3B R/B 3.4 21:27:17 11° S 21:33:20 36° ESE 21:40:05 10° NE
USA 305 3.2 21:30:42 10° WNW 21:34:19 48° NNE 21:37:17 12° E
Cosmos 1606 4.5 21:31:53 10° NNW 21:34:52 25° W 21:37:47 10° SSW
NOSS 3 (A) 4.4 21:32:47 10° NW 21:35:25 81° NE 21:37:02 26° SE
Ariane Rocket 3.8 21:33:17 11° S 21:38:00 47° W 21:42:54 10° NNW
Cosmos 1727 Rocket 4.2 21:31:44 10° N 21:38:03 64° ENE 21:42:35 19° SSE
CZ-4C R/B 3.5 21:31:42 10° NW 21:38:11 50° NE 21:46:10 10° ESE
Landsat 5 3.6 21:34:36 10° NNE 21:39:00 66° ESE 21:42:13 18° S
Cosmos 2298 Rocket 4.3 21:33:59 10° SSW 21:39:18 73° WNW 21:44:39 10° NNE
Cosmos 482 Debris 4.5 21:35:39 10° WSW 21:41:05 75° SSE 21:45:04 10° ENE
USA 215 4.3 21:36:57 14° S 21:41:42 32° SW 21:47:28 10° WNW
Cosmos 1821 Rocket 4.1 21:38:58 17° S 21:43:54 61° E 21:50:11 10° NNE
H-2A R/B 4.3 21:42:23 12° E 21:44:31 18° ENE 21:47:10 10° NNE
Cosmos 1437 Rocket 3.6 21:45:23 10° SSW 21:48:52 45° WNW 21:52:24 10° N
Gbstr 26 Del rocket 3.6 21:48:07 10° WNW 21:52:48 75° N 21:58:37 10° E
Cosmos 1238 Rocket 4.4 21:51:37 10° NNE 21:54:26 21° ENE 21:56:00 17° ESE
Geosat 3.9 21:49:34 10° NNE 21:54:37 84° ESE 21:59:38 10° SSW
Cosmos 1544 4.4 21:57:13 12° ENE 21:57:13 12° ENE 21:57:35 10° NE
ULPM Upper Stage 2.8 21:52:38 10° NW 21:57:02 83° NE 21:59:28 26° SE
Meteor 2-13 Rocket 4.5 21:51:26 10° N 21:57:38 85° W 22:02:01 20° S
SeaSat 1 3.9 21:53:41 11° ESE 21:57:41 30° NE 22:01:58 10° NNW
Cosmos 1892 Rocket 4.1 21:56:23 26° SSE 21:58:26 44° E 22:02:39 10° NNE
Cosmos 1269 Rocket 4.0 21:54:35 10° NNW 21:59:55 81° WSW 22:03:08 25° SSE
NOSS 3-1 (C) 3.1 21:57:49 10° SW 22:02:46 85° NW 22:08:52 10° NE
BREEZE-M DEB (TANK) 2.7 22:01:46 10° W 22:03:35 23° SW 22:03:35 23° SW
Cosmos 1833 Rocket 4.2 22:01:42 10° NW 22:06:23 27° WSW 22:10:33 12° SSW
Cosmos 2366 rocket 4.5 22:01:18 10° SSW 22:07:21 58° WNW 22:13:25 10° N
Lacrosse 5 3.5 22:04:33 10° WNW 22:09:14 36° N 22:13:55 10° ENE
NOSS 8 (E) 4.3 22:07:38 10° NW 22:10:41 88° NE 22:11:58 37° SE
Cosmos 407 Rocket 4.2 22:05:55 10° NNW 22:10:53 44° ENE 22:14:03 21° ESE
Cosmos 2058 3.5 22:10:23 30° SE 22:11:44 40° E 22:15:36 10° NNE
Cosmos 1606 Rocket 3.8 22:10:20 10° NNW 22:14:37 62° W 22:16:53 26° SSW
Cosmos 1726 Rocket 3.5 22:11:12 10° NNW 22:15:33 81° W 22:17:37 30° S
Cosmos 2082 Rocket 2.4 22:21:21 10° NW 22:26:53 60° WSW 22:29:49 28° S
Cosmos 2239 Rocket 4.4 22:23:14 23° S 22:27:23 86° E 22:33:40 10° N
Cosmos 1140 Rocket 3.4 22:24:19 10° NNW 22:29:29 86° ENE 22:32:00 31° SSE
CENTAUR R/B 4.2 22:22:40 10° NW 22:29:56 43° NNE 22:38:23 10° E
EP 1 4.3 22:28:12 10° NW 22:30:51 83° NE 22:31:12 65° ESE
Cosmos 2084 Rocket 4.2 22:28:05 10° WNW 22:31:39 32° WSW 22:32:33 28° SSW
Cosmos 2278 Rocket 2.8 22:28:37 10° SW 22:34:12 57° NW 22:39:48 10° NNE
Cosmos 2369 Rocket 3.4 22:33:17 22° ESE 22:34:38 24° ESE 22:38:59 10° NE
Cosmos 2123 Rocket 4.0 22:29:32 10° N 22:35:51 81° E 22:39:24 28° SSE
USA 290 3.7 22:35:24 15° WSW 22:37:40 34° WNW 22:40:38 10° N
SL-08 R/B 4.5 22:35:16 22° SSW 22:39:22 81° W 22:45:32 10° N
Cosmos 1812 3.1 22:36:04 10° NNW 22:39:29 47° W 22:40:34 34° SW
PSLV R/B 3.8 22:37:08 10° NNE 22:41:09 75° ESE 22:42:29 40° S
ISS -3.6 22:38:49 10° WNW 22:41:59 51° SSW 22:41:59 51° SSW
NOSS 3-1 (A) 3.1 22:37:23 11° SW 22:42:13 90° NW 22:48:20 10° NE
USA 307 2.4 22:40:38 10° WNW 22:44:30 87° NNE 22:45:39 41° ESE
Cosmos 1782 3.1 22:42:07 10° N 22:45:51 52° ENE 22:46:49 40° SE
Cosmos 2251 Rocket 3.6 22:40:46 10° NNW 22:46:09 71° ENE 22:48:45 31° SE
MINOTAUR 4 R/B 3.7 22:43:52 10° NNE 22:46:28 55° E 22:46:28 55° E
Cosmos 1378 3.6 22:45:22 10° N 22:48:23 36° ENE 22:48:47 35° E
Cosmos 2058 Rocket 3.1 22:45:18 10° NNW 22:49:38 68° W 22:51:14 37° SSW
Cosmos 489 Rocket 4.4 22:46:58 27° S 22:50:33 73° ESE 22:56:47 10° NNE
Alouette 2 Rocket 3.9 22:49:20 34° S 22:51:17 86° ESE 22:57:28 10° NNE
Timation 1 Rocket 4.3 22:50:13 10° NNW 22:56:16 83° ENE 22:59:29 29° SE
Cosmos 1943 Rocket 2.7 22:50:42 10° SW 22:56:16 60° WNW 23:01:51 10° NNE
H-2A R/B 3.8 22:56:14 10° NE 22:58:52 17° E 22:59:25 16° ESE
Cosmos 1271 Rocket 2.8 22:58:20 49° SE 22:58:58 57° E 23:02:41 10° NNE
Cosmos 1515 3.4 22:58:26 10° N 23:01:55 73° E 23:02:25 59° SE
Meteor 2-19 Rocket 4.4 22:56:45 10° NNW 23:02:56 83° W 23:06:01 32° S
Spot 4 3.9 23:01:14 36° S 23:03:09 73° WSW 23:08:02 10° NNW
Cosmos 2056 Rocket 4.5 23:02:29 28° SE 23:03:53 32° ESE 23:08:30 10° NE
COSMOS 2406 4.0 23:00:20 10° NW 23:05:35 39° WSW 23:07:56 27° SSW
ARIANE 5 R/B 3.7 23:04:43 25° SW 23:06:27 35° W 23:10:35 10° NNW
USA 305 2.9 23:03:11 10° WNW 23:05:57 40° WSW 23:05:57 40° WSW
Cosmos 1934 Rocket 4.0 23:03:27 27° SSW 23:07:06 79° W 23:13:19 10° N
Cosmos 1812 Rocket 3.9 23:05:19 10° N 23:09:43 57° ENE 23:11:13 37° SE
USA 229 DEB 3.6 23:07:40 31° S 23:10:34 55° ESE 23:17:08 10° NE
USA 229 3.7 23:07:50 31° S 23:10:41 55° ESE 23:17:16 10° NE
Cosmos 1602 Rocket 3.9 23:13:06 40° SE 23:14:11 51° E 23:18:24 10° NNE
Lacrosse 4 Rocket 2.5 23:15:05 26° ESE 23:15:05 26° ESE 23:18:25 10° NE
USA 281 3.4 23:11:30 23° SE 23:15:44 70° ENE 23:22:18 10° NNW
Cosmos 1190 Rocket 3.9 23:13:40 10° NNW 23:18:54 83° ENE 23:21:06 36° SSE
H-2A R/B 2.8 23:18:20 40° SW 23:19:08 47° W 23:22:50 10° NNW
Lacrosse 5 rocket 2.2 23:23:15 30° ESE 23:23:15 30° ESE 23:26:00 10° ENE
Cosmos 676 Rocket 4.4 23:17:47 10° NNW 23:22:55 58° ENE 23:25:31 28° SE
ALOS 2 2.8 23:22:03 42° SSW 23:23:21 62° WSW 23:27:43 10° NNW
ATLAS 3B R/B 3.2 23:16:26 10° SW 23:23:40 70° NW 23:31:25 10° NE
CZ-4C R/B 3.1 23:19:58 10° NW 23:27:01 61° SW 23:31:35 29° SSE
SL-27 R/B 3.2 23:26:48 10° N 23:29:24 32° ENE 23:29:31 32° ENE
Cosmos 2285 Rocket 4.0 23:23:23 10° NNW 23:29:51 85° WSW 23:33:03 32° SSE
Cosmos 1809 Rocket 4.5 23:23:51 10° N 23:30:03 77° E 23:33:04 32° SSE
Cosmos-2242 3.2 23:26:07 10° NNW 23:30:15 56° W 23:31:18 42° SW
Cosmos 1238 Rocket 3.9 23:29:00 10° NNW 23:32:16 33° W 23:33:08 29° WSW
BREEZE-M DEB (TANK) 4.2 23:18:34 10° SW 23:33:01 44° SSE 23:37:12 10° E
Cosmos 1758 Rocket 3.4 23:31:55 47° SSW 23:33:07 88° WNW 23:37:27 10° N
SJ 16-02 3.9 23:31:16 10° NNE 23:33:53 15° NE 23:36:31 10° E
SeaSat 1 2.7 23:33:22 39° S 23:34:55 55° WSW 23:39:46 10° NW
Cosmos 1626 Rocket 3.9 23:34:36 36° SW 23:36:05 57° WNW 23:40:20 10° N
Okean 1-7 Rocket 3.4 23:35:24 47° S 23:36:38 87° ESE 23:41:03 10° N
Gblst 52 Del rocket 4.1 23:34:17 29° SSW 23:36:54 55° SSE 23:42:16 10° ENE
Exosat Rocket 3.5 23:31:40 10° NNW 23:37:11 88° WSW 23:39:13 37° SSE
Gbstr 26 Del rocket 3.7 23:34:29 10° WNW 23:39:33 57° SSW 23:42:40 28° SE
Meteor 2-3 Rocket 3.8 23:38:47 33° SSW 23:41:29 77° WNW 23:47:10 10° N
Cosmos 1833 4.3 23:39:34 10° NNW 23:45:18 77° ENE 23:48:24 28° SE
Cosmos 1605 Rocket 4.2 23:47:24 29° SSW 23:50:37 63° WNW 23:56:45 10° N
Cosmos 2297 3.7 23:47:56 29° SW 23:50:58 80° WNW 23:56:43 10° NNE
Cosmos 1666 2.2 23:51:09 77° S 23:51:23 89° E 23:54:47 10° N
COSMOS 2455 2.9 23:45:54 10° NW 23:51:59 82° NE 23:55:41 25° SE
Lacrosse 5 2.8 23:48:08 10° NW 23:53:04 48° NNE 23:57:59 10° E
Cosmos 1656 Rocket 3.7 23:50:26 28° SW 23:53:24 73° WNW 23:58:59 10° NNE
